TimeCDT,TemperatureF,Dew PointF,Humidity,Sea Level PressureIn,VisibilityMPH,Wind Direction,Wind SpeedMPH,Gust SpeedMPH,PrecipitationIn,Events,Conditions,WindDirDegrees,DateUTC
12:15 AM,55.9,51.1,84,29.62,10.0,NW,12.7,-,N/A,,Drizzle,310,2013-05-20 05:15:00
12:35 AM,55.6,50.4,83,29.62,10.0,NW,13.8,-,N/A,Rain,Light Rain,310,2013-05-20 05:35:00
12:55 AM,55.4,50.5,84,29.62,10.0,NW,13.8,-,0.01,Rain,Light Rain,310,2013-05-20 05:55:00
1:15 AM,54.9,50.2,84,29.62,10.0,WNW,11.5,16.1,0.01,Rain,Light Rain,300,2013-05-20 06:15:00
1:35 AM,54.9,49.6,83,29.62,10.0,WNW,10.4,-,0.01,,Overcast,300,2013-05-20 06:35:00
1:55 AM,55.0,50.0,83,29.62,10.0,WNW,8.1,-,0.01,,Overcast,290,2013-05-20 06:55:00
2:15 AM,54.7,50.2,85,29.62,10.0,West,8.1,-,N/A,,Mostly Cloudy,280,2013-05-20 07:15:00
2:35 AM,54.7,50.9,87,29.62,10.0,West,9.2,-,N/A,,Mostly Cloudy,270,2013-05-20 07:35:00
2:55 AM,55.4,50.0,82,29.62,10.0,West,9.2,-,N/A,,Scattered Clouds,270,2013-05-20 07:55:00
3:15 AM,54.0,49.3,84,29.61,10.0,West,11.5,-,N/A,,Clear,270,2013-05-20 08:15:00
3:35 AM,54.3,49.1,83,29.61,10.0,West,12.7,18.4,N/A,,Scattered Clouds,280,2013-05-20 08:35:00
3:55 AM,54.5,48.6,80,29.60,10.0,West,11.5,-,N/A,,Overcast,280,2013-05-20 08:55:00
4:35 AM,53.6,48.2,82,29.59,10.0,West,12.7,17.3,N/A,,Scattered Clouds,270,2013-05-20 09:35:00
4:55 AM,53.6,48.2,82,29.59,10.0,West,11.5,-,N/A,,Mostly Cloudy,270,2013-05-20 09:55:00
5:15 AM,53.6,47.8,81,29.58,10.0,West,15.0,-,N/A,,Scattered Clouds,280,2013-05-20 10:15:00
5:35 AM,53.6,47.8,81,29.59,10.0,West,16.1,20.7,N/A,,Mostly Cloudy,280,2013-05-20 10:35:00
5:55 AM,52.7,48.2,85,29.58,10.0,WNW,16.1,20.7,N/A,,Scattered Clouds,290,2013-05-20 10:55:00
6:15 AM,52.7,47.8,84,29.58,10.0,West,12.7,-,N/A,,Clear,270,2013-05-20 11:15:00
6:35 AM,52.0,48.2,87,29.58,10.0,West,12.7,-,N/A,,Clear,260,2013-05-20 11:35:00
6:55 AM,53.6,48.2,82,29.58,10.0,West,16.1,21.9,N/A,,Clear,270,2013-05-20 11:55:00
7:15 AM,53.6,47.3,79,29.58,10.0,West,17.3,-,N/A,,Scattered Clouds,270,2013-05-20 12:15:00
7:35 AM,54.0,46.8,77,29.59,10.0,West,16.1,-,N/A,,Mostly Cloudy,270,2013-05-20 12:35:00
7:55 AM,54.5,47.3,77,29.59,10.0,West,17.3,21.9,N/A,,Overcast,260,2013-05-20 12:55:00
8:15 AM,54.7,46.6,74,29.58,10.0,West,17.3,23.0,N/A,,Mostly Cloudy,270,2013-05-20 13:15:00
8:35 AM,55.0,46.6,73,29.58,10.0,West,17.3,25.3,N/A,,Overcast,270,2013-05-20 13:35:00
8:55 AM,55.4,46.4,72,29.59,10.0,West,19.6,26.5,N/A,,Overcast,270,2013-05-20 13:55:00
9:15 AM,56.1,46.2,69,29.59,10.0,West,21.9,28.8,N/A,,Overcast,270,2013-05-20 14:15:00
9:35 AM,57.2,46.9,69,29.58,10.0,West,19.6,26.5,N/A,,Overcast,280,2013-05-20 14:35:00
9:55 AM,57.2,47.1,69,29.59,10.0,West,19.6,31.1,N/A,,Overcast,270,2013-05-20 14:55:00
10:15 AM,57.2,46.4,67,29.59,10.0,West,18.4,27.6,N/A,,Overcast,280,2013-05-20 15:15:00
10:35 AM,57.2,46.6,68,29.58,10.0,West,17.3,28.8,N/A,,Overcast,280,2013-05-20 15:35:00
10:55 AM,56.1,46.6,70,29.59,7.0,West,20.7,29.9,N/A,Rain,Rain,270,2013-05-20 15:55:00
11:15 AM,57.2,46.9,69,29.58,10.0,West,23.0,27.6,N/A,,Overcast,270,2013-05-20 16:15:00
11:35 AM,57.4,47.3,69,29.58,10.0,West,25.3,31.1,N/A,,Overcast,260,2013-05-20 16:35:00
11:55 AM,55.0,49.8,83,29.58,2.5,West,20.7,25.3,0.01,Rain,Light Rain,260,2013-05-20 16:55:00
12:15 PM,55.8,50.4,82,29.58,10.0,WSW,17.3,24.2,N/A,,Overcast,250,2013-05-20 17:15:00
12:35 PM,56.5,50.0,79,29.57,10.0,WSW,24.2,28.8,N/A,,Overcast,250,2013-05-20 17:35:00
12:55 PM,55.9,49.6,79,29.57,4.0,WSW,24.2,32.2,N/A,,Haze,250,2013-05-20 17:55:00
2:15 PM,58.1,52.9,83,29.57,4.0,West,16.1,19.6,N/A,,Haze,280,2013-05-20 19:15:00
2:35 PM,58.5,54.3,86,29.57,5.0,WNW,9.2,-,N/A,,Light Drizzle,290,2013-05-20 19:35:00
2:55 PM,59.2,53.6,82,29.57,10.0,WNW,15.0,19.6,N/A,,Overcast,300,2013-05-20 19:55:00
3:15 PM,58.5,52.2,80,29.58,10.0,NW,17.3,-,N/A,,Overcast,320,2013-05-20 20:15:00
3:35 PM,57.2,53.8,88,29.58,4.0,NNW,12.7,-,0.01,Rain,Rain,330,2013-05-20 20:35:00
3:55 PM,57.4,54.0,88,29.59,10.0,NW,11.5,-,0.01,Rain,Light Rain,320,2013-05-20 20:55:00
4:15 PM,57.2,53.1,86,29.59,7.0,NW,12.7,17.3,N/A,Rain,Light Rain,320,2013-05-20 21:15:00
4:35 PM,56.8,53.8,89,29.60,4.0,NW,20.7,26.5,0.01,Rain,Rain,310,2013-05-20 21:35:00
4:55 PM,56.3,52.7,88,29.60,5.0,WNW,17.3,26.5,0.02,Rain,Rain,300,2013-05-20 21:55:00
5:15 PM,56.1,53.1,89,29.61,5.0,NW,18.4,21.9,0.01,Rain,Light Rain,310,2013-05-20 22:15:00
5:35 PM,55.8,52.9,90,29.62,7.0,NW,21.9,27.6,0.02,Rain,Light Rain,310,2013-05-20 22:35:00
5:55 PM,55.4,52.2,89,29.63,7.0,NW,20.7,27.6,0.03,Rain,Light Rain,310,2013-05-20 22:55:00
6:15 PM,55.6,52.5,89,29.63,7.0,NW,18.4,26.5,0.01,Rain,Light Rain,320,2013-05-20 23:15:00
6:35 PM,55.4,52.5,90,29.63,3.0,NW,19.6,25.3,0.02,Rain,Light Rain,310,2013-05-20 23:35:00
6:55 PM,55.4,51.6,87,29.64,7.0,NW,25.3,35.7,0.03,Rain,Light Rain,310,2013-05-20 23:55:00
7:15 PM,54.9,51.3,88,29.65,10.0,NW,24.2,29.9,N/A,,Drizzle,310,2013-05-21 00:15:00
7:35 PM,54.9,50.9,86,29.66,10.0,NW,24.2,31.1,0.01,Rain,Rain,310,2013-05-21 00:35:00
7:55 PM,54.7,50.4,85,29.66,10.0,NW,20.7,28.8,0.01,,Light Drizzle,310,2013-05-21 00:55:00
8:15 PM,54.7,49.8,84,29.67,10.0,NW,20.7,27.6,N/A,Rain,Light Rain,310,2013-05-21 01:15:00
8:35 PM,54.5,49.1,82,29.67,10.0,NW,12.7,25.3,N/A,,Overcast,310,2013-05-21 01:35:00
8:55 PM,55.4,48.2,77,29.67,10.0,WNW,18.4,25.3,N/A,,Overcast,300,2013-05-21 01:55:00
9:15 PM,54.1,47.7,79,29.68,10.0,WNW,15.0,25.3,N/A,,Overcast,300,2013-05-21 02:15:00
9:35 PM,53.6,47.1,79,29.67,10.0,WNW,19.6,26.5,N/A,,Mostly Cloudy,300,2013-05-21 02:35:00
9:55 PM,53.6,46.9,78,29.68,10.0,WNW,18.4,23.0,N/A,,Mostly Cloudy,300,2013-05-21 02:55:00
10:15 PM,53.6,46.8,78,29.67,10.0,WNW,19.6,26.5,N/A,,Mostly Cloudy,300,2013-05-21 03:15:00
10:35 PM,52.9,45.9,77,29.68,10.0,WNW,19.6,25.3,N/A,,Mostly Cloudy,300,2013-05-21 03:35:00
10:55 PM,52.2,45.5,78,29.68,10.0,WNW,16.1,26.5,N/A,,Mostly Cloudy,300,2013-05-21 03:55:00
11:15 PM,51.6,45.3,79,29.68,10.0,WNW,17.3,24.2,N/A,,Scattered Clouds,300,2013-05-21 04:15:00
11:35 PM,51.8,45.5,79,29.69,10.0,WNW,17.3,24.2,N/A,,Mostly Cloudy,300,2013-05-21 04:35:00
11:55 PM,51.1,44.8,79,29.69,10.0,WNW,17.3,26.5,N/A,,Mostly Cloudy,300,2013-05-21 04:55:00